www.pogodaiklimat.ru

Погода и климат >> Архив погоды >> Россия >> Алтай >> Чемал


АРХИВ ПОГОДЫ в Чемале

Время (UTC), дата Ветер
(напр.,м/с)
 
Видим.   Явления Облачность Т
(С)
Тd
(С)
f
(%)
Тe
(С)
Тes
(С)
Комфортность P
(гПа)
Po
(гПа)
Тmin
(С)
Tmax
(С)
R
(мм)
R24
(мм)
S
(см)
06 17.07 С 2 50 км 8/5 1000 м
[Sc Ac trans]
+25.7 +13.1 46 +28 +33 жарко 1005.5 958.7
09 17.07 З 2 50 км 6/6 1000 м
[Cu Sc]
+28.0 +14.0 42 +30 +35 жарко 1004.5 958.3
12 17.07 З 1 50 км 4/0
[Ac trans Ci fib]
+27.7 +11.1 36 +29 +31 жарко 1004.3 958.1 +29.0
15 17.07 В 1 50 км 9/0
[Ac und]
+20.8 +14.3 66 +25 +25 комфорт 1006.2 958.9
18 17.07 В 1 50 км 8/8 1000 м
[Sc]
+19.2 +13.8 71 +22 +22 комфорт 1006.4 958.9
21 17.07 В 3 50 км 8/8 1000 м
[Sc]
+18.6 +12.8 69 +19 +19 1006.6 958.9
00 18.07 З 2 50 км 8/6 1000 м
[Cb cap Ac trans]
+17.7 +12.6 72 +18 +18 1006.1 958.3 +17.5
03 18.07 ЮЗ 2
{10}
50 км слаб. ливневой дождь 8/8 1000 м
[Cb cap Ac trans]
+20.2 +14.3 69 +23 +25 комфорт 1005.3 958.0 +16.8
06 18.07 ЮЗ 1 50 км {ливн. осадки} 9/3 1000 м
[Cu med, cong Ac trans Ci fib]
+27.3 +13.1 42 +29 +37 жарко 1001.3 955.2
09 18.07 С 4-10
{10}
50 км 9/4 1000 м
[Sc Ac und Ci fib]
+28.0 +14.1 43 +30 +33 жарко 1001.2 955.3
12 18.07 С 2
{10}
50 км гроза без осадков 10/10 1000 м
[Cb cap]
+21.8 +13.3 58 +24 +24 комфорт 1006.2 959.1 +29.5 0.3
15 18.07 В 1 50 км {гроза} 10/6 1000 м
[Cb cap Ac und]
+17.3 +14.4 83 +18 +18 1008.8 960.8
18 18.07 Ю 1 50 км {гроза} 10/10 600 м
[Cb cap]
+16.8 +14.4 86 +18 +18 1008.7 960.7
21 18.07 ЮВ 1 50 км 10/10 1000 м
[Sc]
+15.7 +13.9 89 +16 +16 1008.7 960.5
00 19.07 штиль 0 50 км 10/10 1000 м
[Sc]
+15.7 +13.7 88 +15 +15 1009.2 960.9 +14.6
03 19.07 СЗ 1 50 км 4/3 1000 м
[Cu med, cong Ci fib]
+20.8 +13.7 64 +25 +32 комфорт 1007.7 960.3
06 19.07 ЮЗ 1 50 км 10/10 1000 м
[Cu Sc]
+23.5 +12.7 51 +26 +26 жарко 1006.6 959.7
09 19.07 З 2 50 км 9/9 1000 м
[Cu Sc]
+24.9 +12.8 47 +27 +28 жарко 1005.3 958.7
12 19.07 В 1 50 км в посл. час гроза {ливн. осадки} 10/10 600 м
[Cb cap]
+17.9 +15.7 87 +19 +19 1008.3 960.5 +26.4 5
15 19.07 В 2 50 км 10/10 1000 м
[Sc]
+16.9 +15.1 89 +17 +17 1008.9 960.8
18 19.07 СВ 1 50 км 8/8 600 м
[Sc]
+15.2 +13.6 90 +16 +16 1008.9 960.5
21 19.07 В 2 50 км 10/10 1000 м
[Sc]
+13.9 +12.3 90 +13 +13 1008.0 959.5
00 20.07 В 2 50 км 10/10 1000 м
[Cu Sc]
+13.9 +12.1 89 +13 +13 1008.4 959.8 +13.8
03 20.07 штиль 0 20 км {ливн. осадки} 10/10 300 м
[St]
+15.9 +13.9 88 +16 +16 1008.1 959.9
06 20.07 ЮЗ 1 50 км {ливн. осадки} 10/10 600 м
[Sc]
+19.9 +13.3 66 +23 +23 комфорт 1007.2 959.7
09 20.07 З 2 50 км {ливн. осадки} 8/8 1000 м
[Cb cap]
+22.1 +14.8 63 +25 +28 комфорт 1006.4 959.4
12 20.07 З 2 50 км {ливн. осадки} 8/8 1000 м
[Sc diur, vesp]
+23.0 +14.7 60 +27 +27 душно 1006.1 959.2 +24.4 2
15 20.07 штиль 0 50 км 4/4 1500 м
[Sc diur, vesp]
+17.7 +15.1 85 +18 +18 1007.9 960.1
18 20.07 штиль 0 50 км ясно +14.3 +13.1 92 +14 +14 1008.7 960.2
21 20.07 В 1 50 км ясно +13.2 +12.1 93 +13 +13 1008.2 959.5
00 21.07 В 2 20 км 3/3 300 м
[St Ci fib]
+12.9 +11.6 92 +12 +13 1008.8 960.0 +12.4
03 21.07 С 1 50 км 8/5 1000 м
[Sc Ac trans]
+20.5 +13.0 62 +24 +27 комфорт 1006.1 958.7
06 21.07 З 1 50 км 6/3 1000 м
[Cu med, cong Ac trans]
+25.0 +13.1 48 +27 +37 жарко 1004.2 957.6
09 21.07 З 2 50 км в посл. час ливневой дождь 8/8 1000 м
[Cb cap]
+23.8 +15.5 60 +27 +29 жарко 1005.1 958.3
12 21.07 С 1 20 км {ливн. осадки} 6/6 1000 м
[Cu med, cong]
+24.2 +14.0 53 +27 +28 жарко 1004.4 957.7 +26.6 0.3
15 21.07 З 1 10 км дым 10/10 1000 м
[Cu Sc]
+20.6 +13.7 65 +24 +24 комфорт 1006.2 958.8
18 21.07 штиль 0 20 км ясно +15.9 +13.6 86 +16 +16 1006.5 958.4
21 21.07 В 1 20 км 8/8 1000 м
[Sc]
+15.8 +13.3 85 +16 +16 1005.5 957.4
00 22.07 штиль 0 10 км слаб. ливневой дождь 10/10 1000 м
[Cb cap]
+15.4 +13.8 90 +15 +15 1005.3 957.2 +15.0 0.4
03 22.07 штиль 0 10 км {гроза, ливн. осадки} 9/8 300 м
[St Ac trans Ci fib]
+17.3 +15.4 89 +17 +19 1004.8 957.0
06 22.07 ЮЗ 1 50 км {гроза, ливн. осадки} 8/8 1000 м
[Sc Ac und]
+23.4 +16.2 64 +28 +32 душно 1001.9 955.2
09 22.07 СЗ 2 50 км 6/5 1000 м
[Cb cap Ci sp]
+27.2 +14.1 45 +29 +35 жарко 1000.2 954.2
12 22.07 З 2 50 км 3/3 1000 м
[Cu med, cong Ci sp]
+27.1 +13.0 42 +29 +30 жарко 999.8 953.7 +27.6 3
15 22.07 штиль 0 50 км в посл. час гроза {ливн. осадки} 8/8 1000 м
[Cb cap]
+19.9 +16.7 82 +22 +22 комфорт 1002.1 954.9
18 22.07 штиль 0 50 км {гроза, ливн. осадки} 9/9 1000 м
[Cb cap]
+17.0 +14.2 84 +17 +17 1002.5 954.8
21 22.07 ЮВ 1 50 км в посл. час ливневой дождь 10/10 600 м
[Cb cap]
+16.4 +13.3 82 +17 +17 1002.8 954.9
00 23.07 В 1 50 км в посл. час ливневой дождь 10/8 600 м
[Cb cap Ac trans]
+16.0 +13.9 87 +17 +17 1002.9 955.0 +15.7 0.6
03 23.07 штиль 0 50 км 10/10 600 м
[Cb cap]
+19.2 +14.5 74 +20 +20 1002.0 954.6
06 23.07 ЮЗ 2 50 км 10/10 1000 м
[Cu Sc]
+23.4 +13.9 55 +27 +27 душно 1000.2 953.6
09 23.07 СВ 1 50 км {ливн. осадки} 8/6 600 м
[Cb cap Ci sp]
+22.3 +15.0 63 +26 +31 жарко 1000.9 954.1
12 23.07 штиль 0 50 км {гроза, ливн. осадки} 8/8 600 м
[Cb cap]
+19.6 +16.5 82 +22 +22 комфорт 1002.4 955.1 +23.6 13
15 23.07 ЮВ 1 50 км 10/10 1000 м
[Cu Sc]
+17.0 +15.3 90 +18 +18 1003.4 955.6
18 23.07 штиль 0 50 км 10/10 600 м
[Sc]
+16.5 +15.1 91 +16 +16 1003.7 955.8
21 23.07 штиль 0 50 км 10/10 1000 м
[Sc]
+15.9 +14.7 93 +16 +16 1003.3 955.4
00 24.07 ЮВ 1 50 км в посл. час ливневой дождь 10/10 600 м
[Cb cap]
+15.9 +14.3 90 +17 +17 1002.5 954.6 +15.6 0.1
03 24.07 СЗ 1 50 км 9/9 1000 м
[Sc]
+21.3 +14.7 66 +24 +25 комфорт 1000.5 953.6

 

Местоположение метеостанции Чемал (Алтай, Россия): широта 51.38 долгота 86.02 высота над уровнем моря 419 м.

В архиве по умолчанию представлена погода в Чемале за последнюю неделю. Архивные данные за месяц целиком и за предыдущие месяцы, начиная с января 2011 года, Вы можете получить, выбрав интересующий диапазон дат из раскрывающегося списка и нажав кнопку "Ввод!".


*Определитесь, кто Вы:
робот инопланетянин человек

Внимание! Время в таблицах - всемирное. Для получения местного времени необходимо прибавить поправку, которая равна 7 ч.

Смотрите также архив погоды в соседних городах и на ближайших метеорологических станциях:

Погода в Шебалино (Алтай, Россия) (25 км)
Погода в Кызыл-Озеке (Алтай, Россия) (58 км)
Погода в Горно-Алтайске (Алтай, Россия) (67 км)
Погода в Онгудае (Алтай, Россия) (70 км)
Погода в Чое (Алтай, Россия) (77 км)
Погода в Белокурихе (Алтайский край, Россия) (98 км)
Погода в Усть-Кане (Алтай, Россия) (102 км)
Погода в Семинском перевале (Алтай, Россия) (106 км)
Погода в Яйлю (Алтай, Россия) (118 км)
Погода в Солонешном (Алтайский край, Россия) (120 км)

Пояснения к столбцам:

Ветер - указаны скорость ветра в м/с - средняя за 10 мин, порывы в срок и между сроками (в фигурных скобках) и направление, откуда дует ветер: С - северный, СВ - северо-восточный, В - восточный, ЮВ - юго-восточный, Ю - южный, ЮЗ - юго-западный, З - западный, СЗ - северо-западный.
Видимость - горизонтальная дальность видимости в метрах или километрах. При видимости от 1 до 10 км при отсутствии осадков обычно наблюдается дымка, при ухудшении видимости до 1 км и менее - туман. В сухую погоду видимость может ухудшаться дымом, пылью или мглою.
Явления - указаны атмосферные явления, наблюдавшиеся в срок или в последний час перед сроком; фигурными скобками обозначены явления, наблюдавшиеся между сроками (за 1-3 часа до срока); квадратными скобками обозначены град или гололедные отложения с указанием их диаметра в мм.
Облачность - указаны через наклонную черту общая и нижняя облачность в баллах и высота нижней границы облаков в метрах; квадратными скобками обозначены формы облаков: Ci - перистые, Cs - перисто-слоистые, Cc - перисто-кучевые, Ac - высококучевые, As - высокослоистые, Sc - слоисто-кучевые, Ns - слоисто-дождевые, Cu - кучевые, Cb - кучево-дождевые. Подробнее классификацию облаков см. в Атласе облаков (PDF).
T - Температура воздуха - температура, измеренная на высоте 2 м над землей.
Td - Температура точки росы - температура, при понижении до которой содержащийся в воздухе водяной пар достигнет насыщения.
f - Относительная влажность воздуха - влажноcть воздуха, измеренная на высоте 2 м над землей.
Te - Эффективная температура - температура, которую ощущает одетый по сезону человек в тени. Характеристика душности погоды. При расчете учитывается влияние влажности воздуха и скорости ветра на теплоощущения человека.
Tes - Эффективная температура на солнце - температура, которую ощущает человек, с поправкой на солнечный нагрев. Характеристика знойности погоды. Зависит от высоты солнца над горизонтом, облачности и скорости ветра. Ночью, в пасмурную погоду, а также при ветре 12 м/с и более поправка равна нулю.
P - Атмосферное давление - приведенное к уровню моря атмосферное давление.
Po - Атмосферное давление - измеренное на уровне метеостанции атмосферное давление.
Tmin - Минимальная температура - минимум температуры воздуха на высоте 2 м над землей.
Tmax - Максимальная температура - максимум температуры воздуха на высоте 2 м над землей.
R - Количество осадков - Количество выпавших осадков за период времени, мм. При наведении курсора мыши на число - период времени, за который выпало указанное количество осадков.
R24 - Количество осадков - Количество выпавших осадков за 24 часа, мм.
S - Снежный покров - Высота снежного покрова, см. При наведении курсора мыши на число - состояние снежного покрова и степень покрытия местности в баллах.